Probability
0 0 0 0 0 0 0 0 0 0 0 0 0 0 0 0 0 0 0 0 0 0 0 0 0 0 0 0 0 0 0 0 0 0 0 0 0 0 0 0 0 0 0
0 0 0 0 0 0 0 0 0 0 0 0 0 0 0 0 0 0 0 0 0 0 0 0 0 0 0 0 0 0 0 0 0 0 0 0 0 0 0 0 0 0 0
0 0 0 0 0 0 0 0 0 0 0 0 0 0 0 0 0 0 0 0 0 0 0 0 0 0 0 0 0 0 0 0 0 0 0 0 0 0 0 0 0 0 0
0 0 0 0 0 0 0 0 0 0 0 0 0 0 0 0 0 0 0 0 0 0 0 0 0 0 0 0 0 0 0 0 0 0 0 0 0 0 0 0 0 0 0
0 0 0 0 0 0 0 0 0 0 0 0 0 0 0 0 0 0 0 0 0 0 0 0 0 0 0 0 0 0 0 0 0 0 0 0 0 0 0 0 0 0 0
0 0 0 0 0 0 0 0 0 0 0 0 0 0 0 0 0 0 0 0 0 0 0 0 0 0 0 0 0 0 0 0 0 0 0 0 0 0 0 0 0 0 0
0 0 0 0 0 0 0 0 0 0 0 0 0 0 0 0 0 0 0 0 0 0 0 0 0 0 0 0 0 0 0 0 0 0 0 0 0 0 0 0 0 0 0
0 0 0 0 0 0 0 0 0 0 0 0 0 0 0 0 0 0 0 0 0 0 0 0 0 0 0 0 0 0 0 0 0 0 0 0 0 0 0 0 0 0 0
0 0 0 0 0 0 0 0 0 0 0 0 0 0 0 0 0 0 0 0 0 0 0 0 0 0 0 0 0 0 0 0 0 0 0 0 0 0 0 0 0 0 0
0 0 0 0 0 0 0 0 0 0 0 0 0 0 0 0 0 0 0 0 0 0 0 0 0 0 0 0 0 0 0 0 0 0 0 0 0 0 0 0 0 0 0
0 0 0 0 0 0 0 0 0 0 0 0 0 0 0 0 0 0 0 0 0 0 0 0 0 0 0 0 0 0 0 0 0 0 0 0 0 0 0 0 0 0 0
0 0 0 0 0 0 0 0 0 0 0 0 0 0 0 0 0 0 0 0 0 0 0 0 0 0 0 0 0 0 0 0 0 0 0 0 0 0 0 0 0 0 0
0 0 0 0 0 0 0 0 0 0 0 0 0 0 0 0 0 0 0 0 0 0 0 0 0 0 0 0 0 0 0 0 0 0 0 0 0 0 0 0 0 0 0
0 0 0 0 0 0 0 0 0 0 0 0 0 0 0 0 0 0 0 0 0 0 0 0 0 0 0 0 0 0 0 0 0 0 0 0 0 0 0 0 0 0 0
0 0 0 0 0 0 0 0 0 0 0 0 0 0 0 0 0 0 0 0 0 0 0 0 0 0 0 0 0 0 0 0 0 0 0 0 0 0 0 0 0 0 0
0 0 0 0 0 0 0 0 0 0 0 0 0 0 0 0 0 0 0 0 0 0 0 0 0 0 0 0 0 0 0 0 0 0 0 0 0 0 0 0 0 0 0
0 0 0 0 0 0 0 0 0 0 0 0 0 0 0 0 0 0 0 0 0 0 0 0 0 0 0 0 0 0 0 0 0 0 0 0 0 0 0 0 0 0 0
0 0 0 0 0 0 0 0 0 0 0 0 0 0 0 0 0 0 0 0 0 0 0 0 0 0 0 0 0 0 0 0 0 0 0 0 0 0 0 0 0 0 0
0 0 0 0 0 0 0 0 0 0 0 0 0 0 0 0 0 0 0 0 0 0 0 0 0 0 0 0 0 0 0 0 0 0 0 0 0 0 0 0 0 0 0
0 0 0 0 0 0 0 0 0 0 0 0 0 0 0 0 0 0 0 0 0 0 0 0 0 0 0 0 0 0 0 0 0 0 0 0 0 0 0 0 0 0 0
0 0 0 0 0 0 0 0 0 0 0 0 0 0 0 0 0 0 0 0 0 0 0 0 0 0 0 0 0 0 0 0 0 0 0 0 0 0 0 0 0 0 0
0 0 0 0 0 0 0 0 0 0 0 0 0 0 0 0 0 0 0 0 0 0 0 0 0 0 0 0 0 0 0 0 0 0 0 0 0 0 0 0 0 0 0
0 0 0 0 0 0 0 0 0 0 0 0 0 0 0 0 0 0 0 0 0 0 0 0 0 0 0 0 0 0 0 0 0 0 0 0 0 0 0 0 0 0 0
0 0 0 0 0 0 0 0 0 0 0 0 0 0 0 0 0 0 0 0 0 0 0 0 0 0 0 0 0 0 0 0 0 0 0 0 0 0 0 0 0 0 0
0 0 0 0 0 0 0 0 0 0 0 0 0 0 0 0 0 0 0 0 0 0 0 0 0 0 0 0 0 0 0 0 0 0 0 0 0 0 0 0 0 0 0
0 0 0 0 0 0 0 0 0 0 0 0 0 0 0 0 0 0 0 0 0 0 0 0 0 0 0 0 0 0 0 0 0 0 0 0 0 0 0 0 0 0 0
Height
5881 5881 5882 5882 5883 5883 5883 5882 5882 5881 5880 5880 5878 5877 5876 5875 5873 5871 5869 5867 5864 5862 5860 5857 5854 5851 5848 5845 5842 5840 5837 5834 5832 5831 5829 5828 5828 5828 5829 5830 5831 5833 5834
5880 5881 5881 5882 5882 5882 5882 5882 5881 5881 5880 5879 5878 5878 5876 5875 5873 5871 5869 5867 5865 5862 5860 5858 5855 5852 5849 5846 5844 5841 5838 5835 5833 5832 5830 5829 5829 5828 5829 5829 5831 5832 5834
5879 5880 5880 5881 5881 5881 5882 5881 5881 5881 5880 5879 5878 5877 5876 5875 5874 5872 5870 5868 5865 5863 5861 5858 5856 5853 5850 5848 5845 5842 5839 5837 5834 5833 5831 5830 5829 5829 5829 5829 5830 5831 5833
5878 5879 5879 5880 5881 5881 5881 5881 5880 5880 5880 5879 5878 5877 5876 5875 5874 5872 5870 5868 5866 5864 5862 5859 5857 5854 5851 5849 5846 5843 5841 5838 5836 5834 5832 5831 5830 5830 5830 5830 5830 5831 5832
5877 5878 5878 5879 5880 5880 5880 5880 5880 5880 5879 5879 5878 5877 5877 5875 5874 5873 5871 5869 5867 5864 5862 5860 5857 5855 5852 5850 5847 5845 5842 5839 5837 5835 5833 5832 5831 5830 5830 5830 5831 5831 5832
5876 5877 5878 5878 5879 5879 5880 5880 5880 5880 5879 5879 5878 5878 5877 5876 5874 5873 5871 5869 5867 5865 5863 5860 5858 5856 5853 5851 5848 5846 5843 5841 5838 5836 5835 5833 5832 5831 5830 5830 5831 5831 5832
5875 5876 5877 5877 5878 5879 5879 5879 5880 5880 5879 5879 5878 5878 5877 5876 5874 5873 5871 5869 5867 5865 5863 5861 5858 5856 5854 5851 5849 5846 5844 5842 5840 5838 5836 5834 5833 5832 5831 5831 5831 5831 5832
5874 5875 5876 5876 5877 5878 5879 5879 5879 5879 5879 5879 5878 5878 5877 5876 5874 5873 5871 5870 5868 5865 5863 5861 5858 5856 5853 5851 5849 5847 5845 5843 5841 5839 5837 5835 5834 5833 5832 5831 5831 5831 5832
5872 5873 5874 5875 5876 5877 5878 5879 5879 5879 5879 5879 5878 5877 5876 5875 5874 5873 5871 5869 5867 5865 5863 5860 5858 5855 5853 5850 5848 5847 5845 5843 5841 5839 5838 5836 5835 5833 5832 5831 5831 5831 5831
5871 5872 5873 5874 5875 5876 5877 5878 5878 5878 5878 5878 5878 5877 5876 5875 5874 5872 5871 5869 5867 5864 5862 5859 5857 5854 5852 5849 5848 5846 5844 5842 5841 5839 5837 5836 5835 5833 5832 5831 5830 5829 5829
5869 5870 5872 5873 5874 5875 5876 5876 5877 5877 5877 5877 5877 5876 5875 5874 5873 5871 5870 5868 5866 5863 5861 5858 5855 5853 5850 5848 5846 5845 5843 5841 5840 5838 5837 5835 5834 5832 5831 5830 5829 5828 5827
5868 5869 5870 5871 5872 5873 5874 5875 5875 5875 5875 5875 5875 5874 5874 5873 5871 5870 5868 5866 5864 5862 5859 5856 5854 5851 5849 5847 5845 5843 5842 5840 5838 5837 5835 5833 5832 5831 5829 5828 5826 5825 5824
5866 5867 5868 5869 5870 5871 5872 5873 5873 5873 5873 5873 5873 5872 5872 5871 5870 5868 5866 5864 5862 5859 5857 5854 5852 5849 5847 5845 5843 5841 5839 5837 5836 5834 5833 5831 5829 5828 5826 5825 5823 5821 5820
5864 5865 5866 5867 5868 5869 5869 5870 5871 5871 5871 5871 5871 5870 5869 5868 5867 5866 5864 5862 5859 5857 5854 5852 5849 5847 5844 5842 5840 5838 5836 5834 5833 5831 5829 5827 5826 5824 5822 5821 5819 5817 5815
5861 5863 5864 5865 5865 5866 5867 5868 5868 5868 5868 5868 5868 5867 5866 5865 5864 5862 5860 5858 5856 5853 5851 5848 5846 5843 5841 5839 5837 5835 5833 5830 5828 5826 5825 5823 5821 5819 5817 5815 5813 5811 5808
5858 5860 5861 5861 5862 5863 5864 5864 5865 5865 5865 5864 5864 5863 5863 5861 5860 5858 5857 5854 5852 5849 5847 5844 5842 5839 5837 5835 5832 5830 5828 5825 5823 5821 5819 5817 5815 5813 5810 5808 5805 5802 5800
5855 5856 5857 5858 5859 5859 5860 5860 5861 5861 5861 5861 5860 5859 5858 5857 5856 5854 5852 5850 5847 5845 5842 5840 5837 5834 5832 5829 5827 5824 5822 5819 5817 5814 5812 5810 5807 5805 5802 5799 5796 5793 5789
5851 5852 5853 5854 5855 5855 5856 5856 5857 5857 5856 5856 5855 5854 5853 5852 5850 5848 5846 5844 5842 5839 5837 5834 5831 5828 5826 5823 5820 5817 5814 5811 5809 5806 5804 5801 5798 5795 5792 5789 5786 5782 5778
5847 5848 5849 5849 5850 5851 5851 5852 5852 5852 5851 5851 5850 5849 5848 5846 5844 5842 5840 5838 5835 5833 5830 5827 5825 5821 5818 5815 5812 5809 5806 5803 5800 5797 5793 5790 5787 5784 5781 5777 5774 5770 5766
5842 5843 5844 5844 5845 5846 5846 5846 5846 5846 5846 5845 5844 5843 5841 5840 5838 5836 5833 5831 5828 5825 5822 5819 5816 5813 5810 5806 5803 5800 5797 5794 5790 5786 5783 5779 5775 5771 5766 5763 5758 5755 5751
5837 5838 5838 5839 5840 5840 5841 5841 5840 5840 5839 5838 5837 5836 5834 5832 5831 5828 5826 5823 5820 5817 5814 5811 5807 5804 5800 5797 5793 5789 5786 5782 5779 5775 5771 5766 5762 5757 5752 5747 5743 5738 5734
5832 5832 5833 5834 5834 5834 5835 5834 5834 5833 5832 5831 5829 5828 5826 5824 5822 5820 5817 5815 5812 5808 5805 5801 5797 5794 5790 5786 5782 5778 5774 5770 5766 5761 5757 5752 5747 5742 5737 5731 5726 5722 5717
5826 5826 5827 5827 5828 5828 5827 5827 5826 5825 5824 5823 5821 5820 5818 5816 5813 5811 5808 5805 5802 5799 5795 5791 5788 5783 5779 5775 5770 5766 5761 5756 5752 5747 5742 5737 5732 5726 5721 5715 5709 5704 5699
5819 5819 5820 5820 5820 5820 5820 5819 5818 5817 5816 5814 5812 5811 5809 5806 5804 5801 5798 5795 5792 5788 5784 5780 5776 5772 5767 5762 5758 5753 5748 5743 5738 5733 5728 5722 5716 5710 5704 5698 5692 5686 5680
5812 5812 5812 5812 5812 5812 5811 5810 5809 5808 5807 5805 5803 5801 5799 5796 5793 5790 5787 5784 5780 5776 5773 5768 5764 5760 5755 5750 5744 5739 5734 5728 5723 5717 5712 5706 5700 5694 5688 5682 5675 5669 5663
5803 5804 5804 5804 5803 5803 5802 5801 5800 5799 5797 5795 5793 5791 5788 5785 5782 5779 5776 5772 5768 5764 5760 5755 5751 5746 5741 5735 5730 5724 5718 5712 5706 5700 5695 5689 5683 5677 5671 5664 5659 5652 5646
Wind_Speed
6 5 4 4 4 3 3 4 4 4 5 6 6 7 8 9 10 11 13 14 14 14 15 16 17 17 17 18 17 16 15 14 12 10 8 6 4 2 1 3 4 6 8
6 5 4 4 3 3 3 3 3 3 4 5 6 7 8 9 10 11 12 13 14 15 15 16 17 17 18 18 18 17 16 15 13 12 10 8 6 3 1 2 3 5 8
5 5 4 4 3 2 2 2 2 2 3 4 5 6 8 9 10 11 12 13 14 15 15 16 16 17 18 18 18 17 17 16 14 13 11 9 7 5 3 0 2 5 7
6 5 5 4 3 2 2 1 1 2 3 4 5 6 7 8 10 11 11 13 13 14 15 15 16 17 18 18 18 17 17 17 15 13 12 10 8 7 4 2 2 4 7
7 6 5 5 3 2 1 0 1 2 3 4 5 6 7 8 9 10 11 12 13 14 15 15 16 16 17 17 18 18 17 17 16 14 12 11 10 8 6 3 1 2 5
7 7 6 5 4 2 2 1 1 2 3 4 5 5 7 8 9 10 11 12 13 13 14 15 16 16 16 17 17 18 17 17 16 15 13 12 11 9 7 5 3 2 4
7 7 7 6 4 3 2 1 0 1 3 4 4 5 6 7 8 10 10 12 13 13 14 15 15 16 17 17 17 17 16 16 16 16 15 14 12 10 8 7 5 4 3
7 7 7 6 5 4 3 2 1 1 2 3 4 5 6 7 8 9 10 11 12 13 14 15 16 16 17 17 17 17 16 16 16 16 15 14 13 11 10 9 7 6 5
8 8 7 6 6 5 4 3 1 0 1 2 3 5 6 7 7 9 10 11 12 13 14 15 16 17 17 17 16 16 16 16 16 16 15 15 14 12 11 10 10 8 8
8 7 7 7 6 5 4 3 2 1 2 2 3 5 5 7 7 9 10 11 12 14 15 15 16 17 17 17 16 16 16 17 17 17 16 16 15 14 13 13 12 11 10
8 8 8 7 7 6 5 4 3 3 3 3 4 5 6 7 8 9 10 11 13 14 15 16 16 17 17 17 17 16 16 16 17 17 17 17 16 16 16 15 14 13 13
9 9 8 8 7 7 6 6 5 4 4 5 5 6 7 8 10 10 11 12 14 15 16 17 17 17 17 17 17 16 16 17 17 17 17 17 17 17 17 17 17 16 16
10 10 9 9 8 8 7 7 6 6 6 6 7 8 9 10 11 12 13 14 15 16 17 17 17 18 18 18 18 17 18 18 18 18 19 19 19 19 19 20 20 20 19
11 11 10 10 9 9 8 7 7 7 8 8 9 10 11 12 13 14 14 15 16 17 17 18 19 19 19 19 19 19 20 20 21 21 20 21 21 22 22 23 23 23 23
12 12 11 11 11 10 9 9 9 9 10 10 11 12 13 14 15 16 17 18 19 19 19 20 20 20 20 20 21 21 23 23 23 23 23 24 25 25 26 27 27 28 28
13 13 13 12 12 12 11 11 11 11 12 12 13 14 15 16 17 18 19 20 20 21 21 21 22 23 23 23 24 25 25 25 26 26 27 28 29 29 30 31 32 32 32
15 15 14 14 13 13 13 13 13 13 14 15 16 16 17 18 19 20 21 22 22 23 23 24 24 25 26 26 28 28 29 29 29 30 31 32 33 34 34 35 36 36 36
17 16 15 15 15 15 15 15 15 16 16 17 18 18 20 21 21 22 23 23 24 25 25 26 27 28 29 30 31 32 32 32 33 33 34 35 37 38 39 40 40 40 40
18 17 17 17 16 16 17 17 17 18 19 20 20 21 22 23 24 24 25 26 27 27 28 29 31 32 33 34 35 35 35 36 37 38 39 40 41 42 44 44 44 44 44
19 18 18 18 18 18 18 19 20 20 21 22 23 24 25 25 26 26 28 29 30 31 32 32 34 35 36 37 37 38 38 39 40 41 43 44 45 47 48 48 48 47 47
19 19 19 19 19 20 20 21 22 23 24 25 25 26 26 27 28 29 30 31 32 33 35 35 36 38 39 40 40 41 42 42 44 45 46 47 49 50 50 51 51 51 51
20 20 20 21 21 22 23 24 25 25 26 27 27 28 29 30 31 32 33 33 34 36 37 38 39 40 41 42 43 44 45 46 47 48 50 51 52 52 53 53 53 53 53
22 22 22 23 24 25 25 26 27 27 28 29 30 31 32 33 33 34 35 36 37 38 39 40 41 43 44 45 46 47 49 50 51 51 52 53 53 54 54 54 55 55 55
24 25 25 26 26 27 28 29 29 30 31 32 33 34 34 35 36 37 38 39 40 41 42 43 44 45 46 48 49 50 52 53 53 54 55 55 55 55 56 56 56 56 56
27 27 28 28 29 30 30 31 32 33 33 34 35 36 37 38 39 40 41 41 42 43 44 45 46 48 49 50 52 53 54 55 56 57 57 57 57 57 57 58 58 57 57
29 30 30 31 31 32 33 34 35 35 36 37 38 38 39 40 41 42 43 43 44 45 47 48 49 51 52 53 54 55 57 58 59 59 59 59 60 60 60 60 59 58 58
Wind_Direction
222 225 233 243 256 275 297 313 327 343 352 359 5 6 8 10 11 12 11 9 9 10 10 10 11 13 15 16 16 15 15 15 16 15 16 17 19 27 182 203 206 204 203
218 219 220 230 246 267 290 306 332 353 357 1 7 9 11 13 13 12 11 11 12 11 11 12 14 15 16 17 17 17 17 16 16 17 17 19 23 24 18 208 208 207 206
214 210 213 219 236 259 276 300 336 356 360 6 11 12 12 12 12 12 11 12 13 13 13 14 16 16 17 17 17 17 18 17 18 19 20 23 23 21 16 310 217 212 209
208 210 213 221 227 237 246 284 343 5 9 14 14 14 13 12 12 13 14 15 15 14 14 15 17 17 18 19 19 19 18 20 20 20 19 18 18 18 13 348 261 223 214
205 204 209 213 213 211 212 251 5 16 17 19 20 19 17 16 17 18 17 17 16 15 15 16 17 17 17 18 19 19 19 21 21 20 19 16 13 11 8 3 326 231 220
202 203 203 201 201 197 203 226 20 31 31 28 24 21 18 15 16 16 15 15 15 14 13 13 15 15 16 17 18 18 20 21 21 21 19 16 13 9 6 0 349 280 237
200 201 199 194 193 190 193 195 127 47 38 30 23 20 16 14 14 14 13 12 10 9 7 7 8 10 11 13 15 16 19 20 20 19 18 16 13 10 7 360 350 328 281
200 199 197 193 191 190 187 181 150 73 36 23 18 17 15 13 11 9 9 8 7 6 5 4 5 5 6 8 10 12 14 15 16 15 15 14 13 10 5 358 345 331 310
199 196 194 193 192 192 192 188 188 310 2 4 8 9 7 7 6 5 4 3 3 2 2 3 2 3 4 5 6 5 6 7 9 10 9 8 7 6 0 354 344 331 319
202 199 196 196 198 201 206 211 226 271 317 332 343 350 353 355 354 354 355 355 355 356 356 356 356 357 358 359 359 359 360 1 2 2 2 360 358 356 352 347 340 331 320
207 204 201 203 207 212 220 231 244 263 288 306 320 329 336 341 344 345 346 347 349 350 350 350 349 349 349 350 350 349 350 352 352 353 353 352 351 349 346 342 338 331 322
210 209 208 211 216 222 232 241 250 261 277 292 304 313 323 330 334 336 339 340 341 341 342 343 343 343 343 343 343 341 340 343 343 343 344 344 343 341 340 337 333 328 321
214 215 217 221 225 229 237 245 253 260 271 283 294 302 311 319 323 327 330 332 332 333 335 336 337 337 337 337 337 335 334 335 335 335 336 337 335 333 332 330 328 324 319
220 222 225 229 232 236 241 248 257 264 274 282 290 298 304 310 314 317 320 322 324 325 327 329 330 331 331 331 330 328 329 329 327 327 328 329 327 326 325 324 322 319 315
228 229 230 233 237 241 244 252 259 266 275 282 288 295 300 305 308 311 313 315 317 319 320 323 325 325 325 325 324 322 322 322 321 321 321 321 320 319 318 318 316 314 312
233 234 236 239 242 245 249 256 261 268 275 281 288 292 296 300 304 306 309 311 314 315 317 318 319 319 319 319 319 318 317 316 315 315 315 315 315 314 314 313 312 310 308
237 239 242 244 246 249 253 258 264 270 276 281 286 290 295 299 302 304 307 309 311 312 312 313 314 314 314 314 315 314 313 311 311 310 310 310 310 311 311 310 310 308 306
242 244 246 247 249 251 256 260 266 271 277 282 286 289 293 297 300 302 305 306 307 307 307 308 309 309 310 310 310 310 310 309 308 307 307 307 307 308 308 308 307 305 304
245 246 248 250 252 255 259 263 268 273 279 282 286 289 292 295 298 301 303 304 305 305 305 305 306 307 307 308 308 307 307 307 306 305 305 306 306 307 306 305 304 302 301
248 250 251 253 255 258 262 266 271 276 280 283 286 289 292 293 296 299 301 302 303 304 304 303 304 305 306 306 306 305 305 305 304 304 304 305 306 306 306 304 302 301 299
252 253 255 256 258 262 266 270 274 278 281 284 287 289 291 292 295 297 299 300 301 302 303 303 303 303 304 304 304 304 304 304 304 303 303 304 304 304 304 303 301 300 299
255 256 258 260 263 266 270 273 276 279 282 285 287 289 291 292 294 297 298 299 300 302 303 303 302 302 302 303 304 304 304 305 304 304 304 304 304 304 303 302 301 300 299
255 257 260 263 266 269 272 275 277 280 283 285 288 289 291 292 294 296 297 298 299 301 302 302 302 302 302 302 303 303 304 304 304 304 304 305 304 303 303 302 301 300 298
257 260 263 265 268 270 273 276 278 281 283 286 288 290 291 293 294 296 297 298 299 300 301 302 303 303 303 302 303 303 304 304 304 304 304 304 304 303 303 302 301 300 299
261 263 266 268 270 272 274 276 279 281 284 286 288 290 291 293 294 295 297 297 298 299 301 302 303 303 304 304 304 304 304 304 305 304 304 304 304 304 303 302 301 300 299
263 266 268 270 272 274 276 278 280 282 284 286 289 290 292 293 294 295 296 297 298 299 301 302 303 304 304 305 305 305 305 305 305 305 304 304 304 303 303 301 300 299 298